Location: Unspecified
(35.6961°N, 0.0000°E)
Time: 14:48:02
(UTC+00:00)

Altair - Pass Details

Date: 24 May 2019
Orbit: 1501 x 1683 km, 47.2° (Epoch: 18 June)

Event Time Altitude Azimuth Distance (km) Brightness Sun altitude
Rises 00:46:30 0° 182° (S) 4,835 - -32.4°
Reaches altitude 10° 00:50:42 10° 167° (SSE) 3,879 - -32.2°
Exits shadow 00:56:48 20° 129° (SE) 3,161 8.9 -31.9°
Maximum altitude 00:57:24 21° 124° (SE) 3,157 8.9 -31.8°
Drops below altitude 10° 01:04:09 10° 81° (E) 3,943 9.9 -31.4°
Sets 01:08:25 0° 67° (ENE) 4,938 10.7 -31.1°
